This demonstration page uses our WeatherBlox Daily Observations layout. Learn more.

Left ArrowRight Arrow

44.8408, -93.29828

Hourly Observations for March 19, 2016

Temp ( °F °C ) Dew Point ( °F °C ) Humidity (%) Winds ( mph kmh ) Pressure ( in mb ) Visibility ( mi km ) Precip ( " mm )
12:53 am 00:53 Cloudy with Light Snow 30 -1.1 25 -3.9 82 82 NNE 13 20 30.20 1023 9 14 0.00 0.03
1:31 am 01:31 Cloudy with Light Snow 29 -1.7 24 -4.4 82 82 NNE 13 20 30.21 1023 6 10 0.00 0.03
1:53 am 01:53 Cloudy with Light Snow 29 -1.7 25 -3.9 85 85 N 8 13 30.19 1023 9 14 0.00 0.03
2:53 am 02:53 Cloudy with Light Snow 28 -2.2 24 -4.4 85 85 NNE 10 17 30.20 1023 5 8 0.00 0.03
3:35 am 03:35 Cloudy 28 -2.2 23 -5 81 81 N 9 15 30.24 1024 9 14 0.00 0.03
3:53 am 03:53 Cloudy 28 -2.2 23 -5 81 81 NNE 12 19 30.19 1023 10 16 0.00 0.03
4:10 am 04:10 Cloudy with Light Snow 28 -2.2 23 -5 81 81 NNE 9 15 30.21 1023 3 4 0.00 0.03
4:13 am 04:13 Cloudy with Light Snow 28 -2.2 23 -5 81 81 N 10 17 30.21 1023 3 5 0.00 0.03
4:53 am 04:53 Cloudy with Light Snow 28 -2.2 24 -4.4 85 85 N 8 13 30.20 1023 4 6 0.00 0.03
5:14 am 05:14 Cloudy with Snow 27 -3 25 -4 93 93 N 10 17 30.24 1024 1 1 0.00 0.00
5:44 am 05:44 Cloudy with Mist and Fog 27 -2.8 24 -4.4 89 89 N 9 15 30.24 1024 3 5 0.07 1.78
5:53 am 05:53 Cloudy with Light Snow 27 -2.8 24 -4.4 89 89 N 10 17 30.21 1023 5 8 0.07 1.78
6:53 am 06:53 Cloudy 27 -2.8 23 -5 85 85 N 10 17 30.22 1023 9 14 0.00 0.03
7:31 am 07:31 Cloudy 28 -2.2 23 -5 81 81 N 10 17 30.27 1025 9 14 0.00 0.00
7:53 am 07:53 Cloudy 28 -2.2 24 -4.4 85 85 NNE 12 19 30.24 1024 8 13 0.00 0.00
8:03 am 08:03 Cloudy 28 -2 23 -5 80 80 N 12 19 30.27 1025 8 13 0.00 0.00
8:46 am 08:46 Cloudy with Light Snow 28 -2 25 -4 86 86 NNE 9 15 30.27 1025 9 14 0.00 0.00
8:53 am 08:53 Cloudy with Light Snow 29 -1.7 24 -4.4 82 82 NNE 12 19 30.25 1024 8 13 0.00 0.03
9:53 am 09:53 Cloudy 30 -1.1 24 -4.4 79 79 NNE 12 19 30.27 1025 10 16 0.00 0.03
10:26 am 10:26 Cloudy 30 -1 25 -4 80 80 NNE 8 13 30.27 1025 10 16 0.00 0.00
10:45 am 10:45 Cloudy 31 -0.6 25 -3.9 79 79 NNE 13 20 30.27 1025 10 16 0.00 0.00
10:53 am 10:53 Cloudy 31 -0.6 25 -3.9 79 79 N 12 19 30.28 1025 10 16 0.00 0.00
11:53 am 11:53 Cloudy 33 0.6 25 -3.9 72 72 N 7 11 30.29 1026 10 16 0.00 0.00
12:33 pm 12:33 Cloudy 35 1.7 27 -2.8 72 72 N 8 13 30.30 1026 10 16 0.00 0.00
12:42 pm 12:42 Cloudy 35 1.7 28 -2.2 76 76 N 10 17 30.30 1026 10 16 0.00 0.00
12:53 pm 12:53 Cloudy 35 1.7 27 -2.8 72 72 N 9 15 30.29 1026 10 16 0.00 0.00
1:53 pm 13:53 Cloudy 38 3.3 28 -2.2 68 68 N 8 13 30.29 1026 10 16 0.00 0.00
2:12 pm 14:12 Cloudy 38 3.3 27 -2.8 65 65 NNW 8 13 30.30 1026 10 16 0.00 0.00
2:53 pm 14:53 Cloudy 41 5 28 -2.2 60 60 N 12 19 30.29 1026 10 16 0.00 0.00
3:53 pm 15:53 Mostly Cloudy 40 4.4 25 -3.9 55 55 N 8 13 30.28 1025 10 16 0.00 0.00
4:53 pm 16:53 Mostly Cloudy 43 6 25 -4 49 49 NE 10 17 30.30 1026 10 16 0.00 0.00
5:53 pm 17:53 Mostly Cloudy 40 4.4 25 -3.9 55 55 N 9 15 30.29 1026 10 16 0.00 0.00
6:53 pm 18:53 Mostly Cloudy 39 3.9 25 -3.9 57 57 N 9 15 30.31 1026 10 16 0.00 0.00
7:53 pm 19:53 Partly Cloudy 36 2.2 25 -3.9 64 64 NNW 8 13 30.32 1027 10 16 0.00 0.00
9:53 pm 21:53 Mostly Cloudy 34 1.1 26 -3.3 73 73 NW 8 13 30.33 1027 10 16 0.00 0.00
11:53 pm 23:53 Mostly Cloudy 34 1 25 -4 70 70 Calm 30.33 1027 10 16 0.00 0.00

Powered by AerisWeather